Theta_e
291 291 291 290 290 289 288 288 288 287 287 286 286 286 286 286 286 285 284 284 284 283 283 282 281 282 281 281 281 281 280 280 276 278 280 280 279 279 280 280 280 280 280
292 290 288 288 287 287 285 285 286 284 285 285 285 286 286 285 285 284 283 283 282 281 281 280 280 281 279 279 279 278 279 279 277 275 277 277 277 277 277 277 278 279 277
288 287 286 286 285 284 284 284 285 284 284 283 284 284 284 284 284 284 283 282 282 281 281 279 279 279 277 277 277 277 278 278 277 275 274 276 276 276 275 276 276 275 277
287 286 285 285 285 284 284 283 283 283 282 282 282 283 283 284 284 283 283 281 280 280 281 280 279 277 277 276 277 277 277 276 275 274 274 273 274 274 274 273 271 274 273
287 286 285 284 284 283 282 282 282 282 281 281 281 281 281 282 283 282 281 280 279 279 279 279 279 279 280 279 278 276 276 274 274 273 272 272 271 272 271 271 271 272 273
286 285 284 283 282 282 281 281 280 280 279 279 279 279 278 282 283 283 282 280 279 279 278 278 278 279 278 279 279 279 278 274 273 272 271 270 271 271 271 271 271 269 267
284 283 282 281 281 280 280 279 279 278 278 278 277 278 277 278 281 282 282 279 279 278 278 278 277 278 277 276 277 277 276 277 276 273 271 271 270 271 271 271 270 270 268
282 281 281 280 279 279 278 278 277 277 277 277 277 277 277 278 279 280 281 279 278 278 277 277 276 276 276 277 275 274 273 273 273 274 273 272 272 273 272 272 271 269 269
281 280 280 279 279 278 277 276 276 276 276 276 277 277 276 277 278 279 280 278 278 277 278 277 277 276 277 278 274 272 272 271 274 275 274 274 274 274 274 270 266 265 264
281 280 279 279 278 277 277 276 276 276 277 277 277 276 277 276 278 278 279 278 277 277 277 277 278 277 277 277 273 271 268 269 270 268 268 269 270 270 271 269 267 264 264
280 278 277 277 276 277 276 275 275 274 275 273 274 275 274 275 275 277 278 277 276 275 275 275 275 277 276 276 275 270 270 271 266 264 265 265 266 266 266 267 267 266 264
276 275 274 273 275 275 271 272 272 271 270 269 269 271 274 274 276 276 278 277 277 274 274 274 273 275 275 274 272 273 273 268 262 262 261 262 263 263 264 265 266 266 266
273 272 270 271 273 273 271 271 269 269 269 270 272 270 271 273 274 277 277 277 278 274 274 274 275 273 272 270 270 271 265 262 260 257 260 262 262 263 264 264 265 264 265
271 270 270 270 270 270 273 273 271 270 270 271 271 270 269 271 272 271 273 270 274 273 271 267 270 270 270 269 263 265 264 262 259 259 261 261 262 262 261 263 261 262 261
271 271 271 271 270 271 271 272 273 273 273 268 268 269 269 266 271 275 273 268 268 271 262 260 260 260 259 260 260 260 259 259 257 258 259 259 260 260 260 261 261 260 259
271 271 271 271 270 271 270 270 277 277 278 279 279 274 273 276 276 276 275 275 275 273 259 256 255 257 258 258 257 257 257 257 256 257 259 259 258 258 258 259 259 259 257
272 271 271 271 271 270 270 269 268 270 278 278 278 278 279 275 276 275 274 274 273 268 255 253 255 256 255 257 257 256 256 255 254 255 258 257 258 257 257 257 257 257 257
271 271 273 272 272 270 269 269 267 266 265 264 273 276 277 276 275 273 273 271 260 259 253 253 254 253 253 255 255 254 255 254 254 256 255 256 255 256 256 255 256 256 256
268 271 270 266 268 268 268 267 266 262 262 260 261 271 272 274 273 272 272 260 256 253 252 251 251 251 253 253 252 253 253 253 254 255 252 253 251 254 255 255 255 256 256
265 267 266 267 264 263 264 264 263 263 262 262 263 265 261 261 261 261 258 257 254 254 252 251 252 250 251 251 251 251 251 252 253 252 252 250 250 252 255 254 254 255 256
264 263 266 262 263 264 264 264 264 263 264 265 265 265 267 262 262 261 260 256 255 252 251 250 250 249 248 249 250 251 251 254 251 251 251 250 250 254 254 254 255 256 256
263 265 263 264 262 264 264 264 265 266 266 266 262 263 272 261 260 259 257 255 253 251 252 251 250 250 251 251 251 250 251 253 251 250 252 251 250 254 254 254 254 255 256
262 264 264 262 265 265 266 266 266 266 265 264 263 261 257 257 258 257 254 252 251 252 252 250 249 250 251 251 250 251 253 254 253 249 254 254 253 253 253 253 254 255 255
264 265 266 266 266 266 266 265 265 264 263 262 261 260 259 259 257 258 256 253 253 253 252 252 252 252 251 250 249 250 251 252 251 254 253 254 253 253 254 254 255 256 256
264 265 266 266 265 265 264 264 264 263 261 260 258 258 259 259 258 256 255 255 254 253 254 253 253 252 251 250 250 249 251 255 253 252 254 254 253 253 253 254 255 256 256
263 263 264 264 264 264 264 263 263 261 260 259 260 260 259 258 257 257 256 256 254 254 253 253 253 251 250 251 251 252 254 258 257 254 254 253 252 253 255 256 255 254 256
Wind_Speed
9 8 7 8 7 7 5 5 4 4 4 5 5 5 5 6 5 5 5 5 5 5 5 4 5 5 4 5 5 3 4 5 9 9 10 12 15 14 13 13 14 14 13
7 7 7 8 7 6 5 5 4 4 4 5 4 5 4 4 4 5 4 4 4 5 5 5 5 6 6 6 5 6 6 7 9 15 12 11 13 13 15 16 12 12 14
7 7 7 6 6 5 5 5 5 5 5 5 4 4 3 3 4 4 4 4 4 4 4 5 5 6 5 5 6 6 6 7 8 9 12 10 11 12 14 12 13 15 12
7 7 6 5 5 5 5 5 5 5 5 4 3 3 2 4 4 4 4 4 5 4 4 4 5 4 4 5 6 6 8 9 9 8 10 10 11 12 11 14 15 11 14
7 6 6 5 5 5 5 5 5 4 4 3 3 2 2 3 3 4 4 4 3 3 4 3 3 3 7 9 6 7 10 8 8 9 10 10 11 12 14 13 15 15 13
7 6 6 6 6 5 4 4 4 4 4 4 3 3 2 3 4 5 4 3 3 2 2 3 3 3 7 12 14 19 15 11 11 10 9 12 14 13 12 13 14 15 14
7 7 6 6 5 5 5 5 5 5 4 5 4 4 4 4 2 3 4 2 2 2 2 3 3 3 5 4 12 15 13 17 17 12 12 13 15 15 15 15 15 14 14
7 7 6 6 5 5 5 5 4 3 4 4 4 3 3 3 1 2 3 3 3 2 3 3 3 4 4 8 10 9 10 9 10 9 10 12 13 13 13 13 14 15 13
7 7 6 6 6 6 6 6 5 4 4 4 4 4 4 4 3 2 2 3 2 3 3 3 2 2 9 17 10 10 9 9 11 18 21 21 23 22 19 10 10 12 14
7 7 6 6 6 7 6 6 4 3 4 3 4 4 4 4 5 3 2 1 3 1 3 4 5 7 13 17 10 7 7 10 9 11 10 12 14 13 19 11 10 11 12
6 6 6 6 5 6 5 3 3 4 4 3 3 3 4 4 4 5 4 0 1 0 2 2 2 11 15 16 15 5 9 10 11 8 8 8 8 8 8 8 10 10 11
6 6 6 4 3 3 5 3 3 3 4 4 3 3 4 5 7 6 6 4 5 2 2 1 2 12 14 14 10 14 16 11 4 5 6 7 9 9 9 10 11 10 9
5 4 3 3 4 5 5 5 3 4 4 5 5 4 4 5 3 8 8 6 7 2 1 4 10 11 11 9 12 14 7 3 3 3 7 7 8 10 12 10 9 11 12
5 5 5 6 6 5 4 5 5 6 6 6 5 4 3 4 4 3 3 1 4 2 3 2 5 7 9 8 3 5 3 3 2 5 6 7 8 8 9 9 10 10 10
5 5 6 6 7 6 7 7 7 6 7 4 4 4 4 3 4 8 5 3 3 3 3 2 2 2 2 2 2 3 3 3 2 2 5 8 8 9 8 8 9 9 9
6 6 6 6 6 6 6 6 16 15 15 15 12 7 3 7 8 8 7 7 5 3 3 1 2 3 3 2 3 4 2 3 2 3 6 7 8 8 9 9 8 8 9
9 6 6 7 7 7 7 6 7 7 16 15 14 15 14 9 8 8 8 6 3 2 2 2 3 3 3 3 4 3 4 2 2 2 6 5 7 8 9 9 8 8 9
9 8 7 7 7 5 6 6 4 5 5 3 11 11 12 10 10 9 8 1 2 2 3 3 4 3 3 4 3 3 4 3 2 4 4 6 4 6 8 8 8 9 9
5 5 4 3 4 5 5 5 4 3 4 3 1 8 6 12 10 10 8 3 3 3 3 3 3 3 3 4 4 4 4 4 4 5 4 4 3 4 7 7 8 10 11
4 6 5 4 3 3 4 4 4 5 4 4 4 5 3 4 2 2 2 3 4 4 3 3 4 3 4 4 4 4 4 4 6 4 4 4 4 3 7 8 7 8 8
3 3 5 3 4 5 5 6 5 5 5 5 5 5 12 6 5 4 4 4 4 3 4 4 4 4 3 3 4 4 5 6 5 5 4 4 3 5 6 7 7 7 8
3 3 3 4 2 4 5 5 6 6 7 7 3 4 15 4 4 3 3 3 4 4 4 4 3 4 4 4 4 4 5 8 6 5 5 4 3 5 6 7 7 7 7
3 3 3 3 5 5 5 6 6 7 6 6 6 5 2 3 3 3 3 3 3 2 2 2 3 4 4 4 4 5 7 8 5 4 6 6 5 6 6 7 7 7 6
4 4 5 5 6 6 6 6 6 6 6 6 6 5 5 4 4 4 3 3 2 2 3 3 3 6 5 6 5 5 6 7 4 6 6 6 7 8 7 7 7 8 7
4 5 6 6 6 6 6 6 6 6 5 5 4 3 4 4 4 3 3 3 2 2 4 4 4 7 9 10 9 9 9 13 8 7 6 8 9 10 8 7 8 7 5
5 5 4 4 5 6 6 6 6 6 6 5 5 5 5 4 3 3 2 2 2 3 5 5 6 9 10 9 11 11 11 12 10 13 9 7 8 7 7 8 7 3 6
Wind_Direction
97 97 111 115 95 80 85 80 76 78 85 80 74 72 60 55 39 50 58 40 48 42 25 30 27 20 13 17 4 344 351 337 314 320 317 327 324 325 329 327 327 329 332
135 129 114 100 90 98 105 101 121 125 87 82 85 79 69 73 58 57 60 51 56 47 25 28 26 21 25 15 356 7 349 331 332 316 322 322 321 327 325 327 333 326 328
129 112 102 105 116 134 135 149 128 105 94 81 84 93 89 75 62 65 62 54 49 56 37 32 24 35 24 3 350 352 335 334 324 315 314 317 318 325 328 325 328 321 321
120 112 119 134 139 140 146 133 116 111 111 111 106 117 90 83 54 38 42 42 35 28 37 44 42 46 26 352 352 334 339 331 321 316 311 317 325 330 322 327 324 328 325
118 123 139 146 144 143 140 135 116 115 117 127 133 114 134 111 62 50 20 16 21 15 26 21 48 27 13 356 350 345 337 327 326 322 322 323 326 330 334 329 318 322 322
139 147 143 159 151 151 153 142 143 151 153 155 158 149 110 97 58 32 34 345 359 11 359 348 8 34 14 359 347 340 341 335 329 328 328 321 323 329 323 322 320 324 324
151 151 160 166 162 169 161 174 178 179 168 182 166 166 145 123 55 8 3 325 315 330 356 0 1 28 14 357 339 342 340 331 336 329 319 323 326 323 320 322 320 321 318
164 164 169 168 169 169 176 195 189 180 185 185 185 176 165 139 150 317 323 303 317 347 343 16 354 4 333 340 340 343 330 335 323 322 320 322 311 318 320 319 328 315 312
182 175 171 173 175 179 191 196 192 182 187 197 183 180 194 182 184 255 296 323 316 334 344 347 317 329 338 340 343 330 330 320 314 328 326 324 326 328 327 336 328 328 317
181 171 170 176 183 192 196 191 177 182 192 183 191 190 201 198 200 241 268 313 327 345 355 314 331 345 340 337 335 341 326 313 344 334 325 325 323 322 332 332 326 317 312
153 159 169 183 186 192 185 163 152 188 182 185 194 199 198 197 215 217 237 43 270 350 304 298 27 338 331 331 333 351 305 343 345 322 319 316 317 328 323 321 316 311 314
157 166 175 163 163 143 149 161 181 173 176 205 204 231 215 200 198 222 220 247 260 177 251 90 340 317 325 327 336 319 329 355 318 317 314 317 328 322 318 314 309 311 305
155 161 149 150 180 176 178 191 188 190 196 209 207 207 219 182 185 220 222 245 265 261 143 296 330 323 325 326 311 324 12 314 304 307 317 320 318 308 311 313 314 315 308
173 179 178 185 198 201 199 197 197 200 205 217 210 203 207 170 176 188 205 225 305 47 19 25 307 322 316 315 339 325 307 289 272 302 312 312 303 314 315 321 324 324 321
194 191 198 200 201 204 214 209 214 218 202 194 203 183 174 187 198 192 188 199 184 195 96 41 10 331 290 292 305 286 282 288 294 289 315 307 310 315 316 322 318 321 322
204 206 204 199 201 211 210 234 239 230 234 237 226 179 178 197 193 207 234 253 258 295 75 125 279 251 249 260 266 271 266 287 281 304 305 304 311 311 316 317 315 321 322
222 206 202 203 205 204 207 207 222 253 237 232 232 233 226 180 216 208 234 243 287 308 122 237 242 240 247 257 262 264 282 258 262 261 294 299 300 307 316 315 318 320 321
223 223 208 206 205 198 194 205 186 184 206 240 251 232 229 214 221 224 238 236 35 322 172 216 238 239 245 254 266 266 280 285 272 284 276 285 281 302 310 310 316 316 318
220 235 222 202 195 195 188 189 188 174 183 182 166 234 191 219 209 228 226 143 182 218 229 243 230 233 245 247 252 260 262 269 276 277 264 265 266 289 299 303 304 307 308
231 231 211 202 197 186 178 177 178 185 188 192 178 187 132 89 178 211 163 169 194 221 229 231 249 243 243 241 252 254 265 273 275 265 262 263 260 255 294 300 298 303 308
225 215 204 198 194 189 187 198 189 185 194 199 199 174 181 180 189 188 190 195 200 217 224 223 241 241 243 245 249 251 251 266 259 263 264 261 252 287 289 285 291 290 299
236 218 184 209 203 200 205 194 195 199 197 193 177 190 208 165 177 184 183 197 213 213 212 210 232 237 235 237 242 251 258 269 263 255 258 259 260 286 284 286 288 290 295
247 219 194 203 221 210 206 201 201 199 192 184 169 175 180 168 178 178 190 213 217 234 240 225 235 262 256 250 234 232 259 267 258 225 272 273 277 279 279 278 282 287 295
236 224 226 216 211 212 207 205 202 192 184 180 176 177 179 169 173 195 200 200 215 234 234 243 246 255 264 264 251 243 242 254 239 260 240 254 268 273 269 268 275 281 281
239 233 226 221 211 212 207 203 198 192 183 177 171 157 163 169 176 186 197 199 199 220 256 257 250 256 263 264 264 257 257 272 262 248 256 252 253 258 260 263 267 272 277
249 244 237 223 219 211 212 206 198 181 184 179 167 169 166 171 178 186 194 213 233 244 263 264 265 264 268 269 265 264 261 265 250 230 227 226 235 246 248 255 247 237 280